logo
Search for airport 
image banner adimage banner adimage banner ad
image banner ad

SCGY - Los Guayes

Located in Cunco, Chile

ICAO - SCGY, IATA -

Data provided by Airmate  

General information

Coordinates: S39°3'8" W71°59'37"
Elevation is 1312 feet MSL.
Magnetic variation is 6° East
View others Airports in Araucanía

Operational data

Special qualification required
Current time UTC:
Current local time:
Weather at : SCQP - La Araucania ( 59 km )
METAR: SCQP 180200Z 35015KT 9999 BKN040 10/08 Q1006
TAF: TAF SCQP 172220Z 1800/1824 35008KT 9999 SCT025 BKN035 TN07/1810Z TX11/1719Z TEMPO 1800/1805 8000 -SHRA BECMG 1806/1808 BKN025 TEMPO 1810/1814 8000 -SHRA BECMG 1818/1820 26005KT BKN035
View NOTAMs / SUP AIP / TFR affecting this airport [VIEW]
Communications frequencies: [VIEW]

Runways:

RWY identifierQFULength (ft)Width (ft)SurfaceLDA (ft)
17170°189365DIRT
35350°189365DIRT

Airport contact information

Address: Cunco Chile

Satellite view of SCGY